Regional Weather Roundup
Issued by NWS

Home | Current Version | Previous Version | Text Only | Print | Product List | Glossary Off
Versions: 1 2 3 4 5 6 7 8 9 10 11 12 13 14 15 16 17 18 19 20 21 22 23 24 25 26 27 28 29 30 31 32 33 34 35 36 37 38 39 40 41 42 43 44 45 46 47 48 49 50

000
ASUS43 KMPX 310401
RWRMN
WEATHER ROUNDUP FOR MINNESOTA
NATIONAL WEATHER SERVICE TWIN CITIES/CHANHASSEN MN
1000 PM CST FRI JAN 30 2015


NOTE: "FAIR" INDICATES FEW OR NO CLOUDS BELOW 12,000 FEET WITH NO
SIGNIFICANT WEATHER AND/OR OBSTRUCTIONS TO VISIBILITY. N/A MEANS
CURRENT SKY AND/OR WEATHER CONDITIONS ARE NOT AVAILABLE.

MNZ060>063-068>070-310500-
   Twin Cities Metro

CITY           SKY/WX    TMP DP  RH WIND       PRES   REMARKS
TWIN CITIES    PTCLDY    27  19  72 S8        30.19F WCI  19
ST PAUL        CLEAR     22  18  85 SE5       30.21F WCI  16
CRYSTAL        CLEAR     25  19  78 S3        30.18F
BLAINE         CLOUDY    28  23  80 S6        30.18S WCI  22
LAKEVILLE      CLEAR     25  19  80 S7        30.18F WCI  17
EDEN PRAIRIE   CLEAR     24  19  81 S8        30.17F WCI  15
SOUTH ST PAUL  CLEAR     24  19  81 CALM      30.20F
LAKE ELMO      MOCLDY    21  18  86 S5        30.20F WCI  15
$$
MNZ001>005-007-008-013>017-022>024-027-028-310500-
   Northwest Minnesota

CITY           SKY/WX    TMP DP  RH WIND       PRES   REMARKS
BEMIDJI        CLOUDY    23  19  83 CALM      30.10R
HALLOCK        CLOUDY    19  16  86 NW16G24   30.20R WCI   5
ROSEAU         CLOUDY    21  16  79 NW12      30.14R WCI   9
WARROAD        CLOUDY    19  16  86 NW5       30.14R WCI  13
THIEF RVR FALL CLOUDY    25  19  80 NW16      30.14R WCI  12
CROOKSTON      CLOUDY    25  19  80 N21       30.18R WCI  10
FOSSTON        CLOUDY    19  18  93 SW6       30.12R WCI  11
DETROIT LAKES  CLEAR     21  19  93 CALM      30.12S
MOORHEAD       CLEAR     25  25 100 NW9       30.16S WCI  15
PARK RAPIDS    PTCLDY    20  16  84 S5        30.09S WCI  13
MAHNOMEN       CLOUDY    22  19  90 W9        30.12R WCI  11
$$
MNZ006-009>011-018-025>026-310500-
   North Central Minnesota

CITY           SKY/WX    TMP DP  RH WIND       PRES   REMARKS
BAUDETTE       CLOUDY    17  11  77 CALM      30.10F
FLAG ISLAND    CLOUDY    12  10  92 NW6       30.13R WCI   3
INTL FALLS     CLOUDY    14   9  80 SW3       30.10F
WASKISH        CLOUDY    19  12  73 CALM      30.10F
BIG FORK       CLOUDY    19  12  73 CALM      30.10F
LONGVILLE      CLOUDY    23  16  74 CALM      30.11S
GRAND RAPIDS   CLOUDY    19  10  68 CALM      30.10S
CRANE LAKE     LGT SNOW  12  10  92 CALM      30.13F
ORR            MIX PCPN  14   7  73 CALM      30.08F
COOK           FLURRIES  16   9  73 S3        30.11F
WALKER         CLOUDY    23  18  82 SW6       30.10R WCI  16
$$
MNZ012-019>021-037-310500-
   Northeast Minnesota

CITY           SKY/WX    TMP DP  RH WIND       PRES   REMARKS
DULUTH         CLOUDY    17   7  64 SW7       30.12F WCI   8
ELY            LGT SNOW  12   9  85 S5        30.10F WCI   4
HIBBING        CLOUDY    16   6  65 SE3       30.12F
EVELETH        FLURRIES  18   9  68 CALM      30.13F
DULUTH HARBOR  CLOUDY    19   9  63 CALM      30.20F
TWO HARBORS    CLOUDY    18   9  68 CALM      30.14F
SILVER BAY     FLURRIES  18   9  68 CALM      30.13F
GRAND MARAIS     N/A     19  13  77 W5        30.18F WCI  12
G MARAIS ARPRT CLOUDY    10   7  85 SW5       30.08F WCI   2
$$
MNZ029>031-032-039>041-046>048-054>057-064-310500-
   West Central Minnesota

CITY           SKY/WX    TMP DP  RH WIND       PRES   REMARKS
FERGUS FALLS   CLEAR     21  19  93 SW3       30.16S
WHEATON        CLEAR     27  25  93 W5        30.16F WCI  21
MORRIS         CLEAR     25  23  93 W5        30.12F WCI  19
ALEXANDRIA     CLEAR     20  18  92 SW6       30.12F WCI  12
ELBOW LAKE     FAIR      21  21  98 S3        30.12F
WADENA         CLEAR     19  18  93 S3        30.10F
GLENWOOD       CLEAR     19  19 100 SW7       30.13F FOG     WCI  10
APPLETON       FAIR      27  23  86 CALM      30.15R
BENSON         CLEAR     23  21  93 CALM      30.14S
ORTONVILLE     CLEAR     27  23  86 N5        30.14S WCI  21
MADISON        CLEAR     34  30  86 W3        30.14S
WILLMAR        FAIR      27  23  86 CALM      30.15F
$$
MNZ033>034-036-042>043-049>051-058-059-310500-
   Central Minnesota

CITY           SKY/WX    TMP DP  RH WIND       PRES   REMARKS
ST CLOUD       CLOUDY    25  19  78 SE6       30.15F WCI  18
SAUK CENTRE    FAIR      19  18  94 CALM      30.13F
PAYNESVILLE    CLEAR     22  21  96 CALM      30.14F
AITKIN         CLOUDY    27  18  69 S5        30.11F WCI  21
PINE RIVER     CLOUDY    23  18  80 CALM      30.14F
BRAINERD       CLOUDY    24  18  77 S6        30.13F WCI  17
STAPLES        PTCLDY    19  18  93 S5        30.12S WCI  13
LONG PRAIRIE   FAIR      21  19  93 S5        30.12F WCI  15
LITTLE FALLS   CLOUDY    27  19  74 CALM      30.14S
LITCHFIELD     CLEAR     25  25 100 CALM      30.15S
BUFFALO        CLEAR     24  20  85 CALM      30.17F
MAPLE LAKE     CLEAR     24  22  92 S3        30.16F
$$
MNZ037-044-045-052-053-310500-
   East Central Minnesota

CITY           SKY/WX    TMP DP  RH WIND       PRES   REMARKS
PRINCETON      CLOUDY    27  19  74 S6        30.16F WCI  20
MORA           CLOUDY    23  14  68 CALM      30.18F
CAMBRIDGE      CLOUDY    27  18  69 SE3       30.16S
RUSH CITY      CLOUDY    21  15  76 SE5       30.18F WCI  15
MOOSE LAKE     CLOUDY    21  12  68 S6        30.13F WCI  14
HINCKLEY       CLOUDY    21  14  73 SE3       30.17F
CLOQUET        CLOUDY    18   9  68 S3        30.13F
MCGREGOR       CLOUDY    23  18  80 S3        30.13F
$$
MNZ071>073-080-081-089-090-097-098-310500-
   Southwest Minnesota

CITY           SKY/WX    TMP DP  RH WIND       PRES   REMARKS
MONTEVIDEO     CLEAR     27  25  93 CALM      30.15S
GRANITE FALLS  CLEAR     26  24  93 S8        30.15F WCI  17
CANBY          CLEAR     33  29  85 SW9       30.14F WCI  25
MARSHALL       CLEAR     34  27  75 SW18      30.14F WCI  23
REDWOOD FALLS  CLEAR     25  22  88 S6        30.15F WCI  18
OLIVIA         CLEAR     27  25  93 S7        30.14F WCI  19
PIPESTONE      CLEAR     30  27  86 SW9       30.13F WCI  22
WINDOM         CLEAR     30  27  86 SW14      30.15F WCI  20
WORTHINGTON    CLEAR     30  25  80 SW20      30.15F WCI  18
JACKSON        CLEAR     32  25  74 SW14      30.17F WCI  22
TRACY          CLEAR     33  28  83 SW17G23   30.14S WCI  22
SLAYTON        CLEAR     30  27  86 SW21      30.13F WCI  18
$$
MNZ065>067-074>077-082>085-091>093-310500-
   South Central Minnesota

CITY           SKY/WX    TMP DP  RH WIND       PRES   REMARKS
MANKATO        CLEAR     27  19  74 S7        30.19F WCI  19
NEW ULM        CLEAR     25  21  86 S5        30.17F WCI  19
ST JAMES       CLEAR     30  25  80 S8        30.19F WCI  23
FAIRMONT       CLEAR     28  21  74 S9        30.18F WCI  20
GLENCOE        CLEAR     27  24  90 S7        30.16F WCI  19
FARIBAULT      CLEAR     25  19  80 S7        30.20F WCI  17
OWATONNA       CLEAR     25  18  74 S13       30.19F WCI  13
WASECA         CLEAR     25  21  86 S10       30.21F WCI  15
ALBERT LEA     CLEAR     27  19  74 S6        30.22F WCI  20
$$
MNZ078>079-086>088-094>096-310500-
   Southeast Minnesota

CITY           SKY/WX    TMP DP  RH WIND       PRES   REMARKS
ROCHESTER      CLEAR     20  13  74 S14       30.21F WCI   7
RED WING       CLEAR     19  12  73 SE3       30.21F
STANTON        CLEAR     26  20  77 S8        30.18F WCI  18
DODGE CENTER   PTCLDY    25  19  80 S15       30.19F WCI  12
WINONA         MOCLDY    23  12  63 CALM      30.27S
AUSTIN         CLEAR     21  18  86 S8        30.23F WCI  12
PRESTON        CLEAR     21  13  70 S13       30.24S WCI   9
$$
ABBREVIATIONS USED IN REMARKS
   TC - TEMPERATURES IN CELSIUS
  WCI - WIND CHILL INDEX
   HX - HEAT INDEX
  VSB - VISIBILITY
$$



USA.gov is the U.S. government's official web portal to all federal, state and local government web resources and services.